ACA273 CYLW-CYVR

Flight info

Callsign ACA273
Flight time N/A
Altitude 24000
Route MRYT6 MERYT DCT BOOTH CANUC6/26R
Aircraft A320/M-SDE3FGHIRWY/LB1

Departure

Time N/A
Airport Kelowna International Airport (CYLW)

Arrival

Time 2026-05-03 20:24
Airport Vancouver International Airport (CYVR)
Time Latitude Longitude Altitude Speed Heading
2026-05-03 20:15 49.29019 -122.53902 7263 ft 272 kts 228°
2026-05-03 20:15 49.27757 -122.56051 6943 ft 270 kts 229°
2026-05-03 20:15 49.26510 -122.58181 6634 ft 268 kts 229°
2026-05-03 20:15 49.25264 -122.60308 6303 ft 267 kts 229°
2026-05-03 20:16 49.24032 -122.62408 5994 ft 266 kts 229°
2026-05-03 20:16 49.22794 -122.64516 5662 ft 264 kts 229°
2026-05-03 20:16 49.21580 -122.66589 5352 ft 262 kts 229°
2026-05-03 20:16 49.20455 -122.68809 5058 ft 260 kts 236°
2026-05-03 20:17 49.19496 -122.71100 4720 ft 259 kts 238°
2026-05-03 20:17 49.18552 -122.73441 4423 ft 257 kts 239°
2026-05-03 20:17 49.17618 -122.75764 4141 ft 255 kts 239°
2026-05-03 20:17 49.16693 -122.78063 3935 ft 249 kts 240°
2026-05-03 20:18 49.16148 -122.80438 3929 ft 232 kts 265°
2026-05-03 20:18 49.16164 -122.82819 3925 ft 216 kts 279°
2026-05-03 20:18 49.16445 -122.85021 3879 ft 205 kts 284°
2026-05-03 20:18 49.16760 -122.87134 3655 ft 204 kts 283°
2026-05-03 20:19 49.17036 -122.89181 3493 ft 195 kts 282°
2026-05-03 20:19 49.17283 -122.91221 3192 ft 192 kts 282°
2026-05-03 20:19 49.17504 -122.93188 2926 ft 189 kts 281°
2026-05-03 20:19 49.17719 -122.95158 2667 ft 185 kts 281°
2026-05-03 20:20 49.17928 -122.97076 2402 ft 178 kts 281°
2026-05-03 20:20 49.18132 -122.98933 2174 ft 176 kts 281°
2026-05-03 20:20 49.18332 -123.00744 1947 ft 168 kts 281°
2026-05-03 20:20 49.18519 -123.02436 1750 ft 155 kts 282°
2026-05-03 20:21 49.18695 -123.04005 1542 ft 145 kts 281°
2026-05-03 20:21 49.18856 -123.05450 1346 ft 134 kts 281°
2026-05-03 20:21 49.19001 -123.06833 1100 ft 129 kts 281°
2026-05-03 20:21 49.19147 -123.08179 919 ft 128 kts 281°
2026-05-03 20:22 49.19300 -123.09508 831 ft 127 kts 283°
2026-05-03 20:22 49.19460 -123.10841 661 ft 126 kts 282°
2026-05-03 20:22 49.19611 -123.12157 493 ft 124 kts 281°
2026-05-03 20:22 49.19749 -123.13457 347 ft 123 kts 282°
2026-05-03 20:23 49.19905 -123.14738 191 ft 121 kts 282°
2026-05-03 20:23 49.20048 -123.16000 44 ft 120 kts 283°
2026-05-03 20:23 49.20186 -123.17158 11 ft 93 kts 280°
2026-05-03 20:23 49.20270 -123.17895 11 ft 55 kts 282°
2026-05-03 20:24 49.20308 -123.18308 11 ft 27 kts 270°
2026-05-03 20:24 49.20277 -123.18585 11 ft 26 kts 251°
2026-05-03 20:24 49.20230 -123.18780 11 ft 14 kts 249°
2026-05-03 20:24 49.20193 -123.18926 11 ft 15 kts 251°
2026-05-03 20:25 49.20128 -123.19035 11 ft 15 kts 187°
2026-05-03 20:25 49.20020 -123.19061 11 ft 15 kts 191°
2026-05-03 20:25 49.19943 -123.19080 11 ft 5 kts 188°
2026-05-03 20:25 49.19916 -123.19087 11 ft 4 kts 190°
2026-05-03 20:26 49.19881 -123.19097 11 ft 4 kts 190°
2026-05-03 20:26 49.19869 -123.19101 11 ft 1 kts 189°
2026-05-03 20:26 49.19837 -123.19109 11 ft 8 kts 190°
2026-05-03 20:26 49.19748 -123.19134 11 ft 16 kts 190°
2026-05-03 20:27 49.19611 -123.19172 11 ft 23 kts 188°
2026-05-03 20:27 49.19473 -123.19062 11 ft 22 kts 143°
2026-05-03 20:27 49.19376 -123.18894 11 ft 21 kts 84°
2026-05-03 20:27 49.19403 -123.18671 11 ft 21 kts 87°
2026-05-03 20:28 49.19381 -123.18453 11 ft 17 kts 98°
2026-05-03 20:28 49.19414 -123.18346 11 ft 12 kts 11°
2026-05-03 20:28 49.19468 -123.18331 11 ft 3 kts 25°
2026-05-03 20:28 49.19484 -123.18315 11 ft 0 kts 32°
2026-05-03 20:29 49.19486 -123.18314 11 ft 0 kts 32°